CW2285 Weather Reports


Display with metric or nautical units.
time (UTC)temp
F
wind
direction
speed
MPH
gust
MPH
rain 1hr
in
rain 24hr
in
rain mn
in
humidity
%
barometer
mb
20260831122504 85 302 4.0 9.0 0.00 0.00 0.00 34 1005.8
20260831122004 85 302 6.0 14.0 0.00 0.00 0.00 34 1005.7
20260831121003 85 308 6.0 10.0 0.00 0.00 0.00 34 1005.7
20260831120504 85 293 4.0 8.0 0.00 0.00 0.00 34 1005.7
20260831120004 85 325 2.0 8.0 0.00 0.00 0.00 34 1005.7
20260831114504 85 317 3.0 6.0 0.00 0.00 0.00 34 1005.5
20260831114003 85 299 3.0 7.0 0.00 0.00 0.00 34 1005.4
20260831113004 85 318 3.0 12.0 0.00 0.00 0.00 34 1005.4
20260831112503 85 299 3.0 6.0 0.00 0.00 0.00 34 1005.4
20260831112003 85 328 2.0 9.0 0.00 0.00 0.00 34 1005.3
20260831111004 85 299 3.0 12.0 0.00 0.00 0.00 35 1005.3
20260831110504 85 325 4.0 12.0 0.00 0.00 0.00 34 1005.3
20260831105503 86 310 6.0 14.0 0.00 0.00 0.00 34 1005.3
20260831105003 86 316 5.0 12.0 0.00 0.00 0.00 34 1005.2
20260831104503 86 306 4.0 12.0 0.00 0.00 0.00 33 1005.2
20260831104004 86 305 5.0 9.0 0.00 0.00 0.00 33 1005.2
20260831103503 86 309 5.0 9.0 0.00 0.00 0.00 33 1005.2
20260831103003 87 322 4.0 15.0 0.00 0.00 0.00 32 1005.2
20260831102504 87 315 4.0 7.0 0.00 0.00 0.00 32 1005.2
20260831102004 87 302 7.0 13.0 0.00 0.00 0.00 30 1005.2
20260831101504 88 301 6.0 13.0 0.00 0.00 0.00 31 1005.2
20260831101003 88 299 8.0 14.0 0.00 0.00 0.00 30 1005.2
20260831100504 87 296 5.0 16.0 0.00 0.00 0.00 31 1005.2
20260831095504 87 313 4.0 10.0 0.00 0.00 0.00 31 1005.2
20260831095004 88 308 5.0 12.0 0.00 0.00 0.00 30 1005.2
20260831094504 88 287 4.0 12.0 0.00 0.00 0.00 30 1005.2
20260831094003 88 306 4.0 13.0 0.00 0.00 0.00 29 1005.2
20260831093503 88 311 5.0 13.0 0.00 0.00 0.00 30 1005.2
20260831093004 88 286 9.0 15.0 0.00 0.00 0.00 30 1005.2
20260831092503 88 299 7.0 20.0 0.00 0.00 0.00 32 1005.2
20260831091504 87 299 4.0 9.0 0.00 0.00 0.00 32 1005.2
20260831091004 88 309 4.0 12.0 0.00 0.00 0.00 33 1005.2
20260831090503 88 299 5.0 13.0 0.00 0.00 0.00 32 1005.2
20260831090004 88 301 5.0 13.0 0.00 0.00 0.00 32 1005.2
20260831085504 88 300 6.0 18.0 0.00 0.00 0.00 32 1005.2
20260831085004 89 303 7.0 16.0 0.00 0.00 0.00 31 1005.3
20260831084503 89 292 8.0 14.0 0.00 0.00 0.00 31 1005.3
20260831084003 89 313 5.0 10.0 0.00 0.00 0.00 30 1005.3
20260831083504 89 315 5.0 10.0 0.00 0.00 0.00 30 1005.4
20260831083003 89 313 3.0 7.0 0.00 0.00 0.00 31 1005.4
20260831082503 89 295 4.0 9.0 0.00 0.00 0.00 31 1005.4
20260831082003 89 304 3.0 9.0 0.00 0.00 0.00 30 1005.4
20260831080503 89 312 4.0 14.0 0.00 0.00 0.00 30 1005.4
20260831080004 89 312 4.0 10.0 0.00 0.00 0.00 29 1005.4
20260831075503 89 311 5.0 12.0 0.00 0.00 0.00 30 1005.4
20260831075004 89 296 6.0 13.0 0.00 0.00 0.00 30 1005.6
20260831074504 89 305 5.0 12.0 0.00 0.00 0.00 31 1005.6
20260831074003 89 308 5.0 7.0 0.00 0.00 0.00 31 1005.6
20260831073504 89 305 3.0 9.0 0.00 0.00 0.00 31 1005.6
20260831073003 89 316 5.0 12.0 0.00 0.00 0.00 31 1005.5
20260831072503 89 306 3.0 8.0 0.00 0.00 0.00 32 1005.4
20260831072004 89 313 3.0 8.0 0.00 0.00 0.00 31 1005.3
20260831071003 89 328 4.0 8.0 0.00 0.00 0.00 31 1005.3
20260831070504 89 295 3.0 8.0 0.00 0.00 0.00 31 1005.3
20260831070003 89 319 3.0 8.0 0.00 0.00 0.00 31 1005.2
20260831065503 89 316 4.0 8.0 0.00 0.00 0.00 30 1005.2
20260831065003 90 313 3.0 8.0 0.00 0.00 0.00 30 1005.3
20260831064504 90 309 4.0 9.0 0.00 0.00 0.00 29 1005.3
20260831064004 90 308 5.0 12.0 0.00 0.00 0.00 29 1005.3
20260831063504 90 305 6.0 13.0 0.00 0.00 0.00 29 1005.3
20260831063004 90 309 6.0 12.0 0.00 0.00 0.00 29 1005.3
20260831062504 90 296 7.0 15.0 0.00 0.00 0.00 29 1005.4
20260831062004 90 310 6.0 12.0 0.00 0.00 0.00 29 1005.4
20260831060504 91 308 6.0 14.0 0.00 0.00 0.00 28 1005.3
20260831055503 91 317 5.0 12.0 0.00 0.00 0.00 27 1005.2
20260831055004 91 296 3.0 13.0 0.00 0.00 0.00 27 1005.2
20260831054504 91 307 4.0 9.0 0.00 0.00 0.00 27 1005.2
20260831054003 92 316 5.0 12.0 0.00 0.00 0.00 27 1005.3
20260831053503 92 300 6.0 17.0 0.00 0.00 0.00 26 1005.3
20260831053004 92 314 5.0 12.0 0.00 0.00 0.00 26 1005.3
20260831052503 92 314 7.0 16.0 0.00 0.00 0.00 26 1005.2
20260831052003 92 302 6.0 13.0 0.00 0.00 0.00 26 1005.2
20260831051003 93 287 12.0 20.0 0.00 0.00 0.00 25 1005.2
20260831050502 93 302 9.0 16.0 0.00 0.00 0.00 25 1005.2
20260831050003 93 298 10.0 18.0 0.00 0.00 0.00 24 1005.2
20260831045503 94 281 9.0 17.0 0.00 0.00 0.00 25 1005.1
20260831045003 94 292 9.0 18.0 0.00 0.00 0.00 24 1005.2
20260831044503 93 302 10.0 16.0 0.00 0.00 0.00 25 1005.1
20260831044002 93 305 9.0 17.0 0.00 0.00 0.00 25 1005.2
20260831043502 93 296 7.0 17.0 0.00 0.00 0.00 25 1005.1
20260831043003 93 313 6.0 13.0 0.00 0.00 0.00 25 1005.1
20260831042004 94 304 7.0 14.0 0.00 0.00 0.00 25 1005.1
20260831041003 94 327 5.0 10.0 0.00 0.00 0.00 26 1005.0
20260831040502 94 299 5.0 14.0 0.00 0.00 0.00 26 1004.9
20260831040003 94 298 5.0 17.0 0.00 0.00 0.00 26 1004.8
20260831035503 94 300 8.0 15.0 0.00 0.00 0.00 26 1004.7
20260831035003 94 305 5.0 13.0 0.00 0.00 0.00 27 1004.7
20260831034502 95 307 5.0 10.0 0.00 0.00 0.00 27 1004.6
20260831033502 95 300 5.0 12.0 0.00 0.00 0.00 27 1004.5
20260831033003 95 311 6.0 12.0 0.00 0.00 0.00 27 1004.2
20260831032502 95 325 4.0 13.0 0.00 0.00 0.00 29 1004.2
20260831031003 96 299 3.0 15.0 0.00 0.00 0.00 28 1004.1
20260831030503 97 301 6.0 14.0 0.00 0.00 0.00 28 1004.0
20260831030002 97 290 5.0 12.0 0.00 0.00 0.00 28 1003.9
20260831025502 97 301 4.0 10.0 0.00 0.00 0.00 28 1003.8
20260831025003 97 273 5.0 12.0 0.00 0.00 0.00 27 1003.9
20260831024502 97 275 6.0 14.0 0.00 0.00 0.00 27 1003.9
20260831024003 98 300 7.0 15.0 0.00 0.00 0.00 27 1003.7
20260831023502 98 299 7.0 12.0 0.00 0.00 0.00 28 1003.6
20260831023002 98 288 5.0 15.0 0.00 0.00 0.00 28 1003.6
20260831022503 98 293 6.0 15.0 0.00 0.00 0.00 28 1003.5
20260831022002 98 281 6.0 14.0 0.00 0.00 0.00 28 1003.5
20260831021503 99 279 6.0 20.0 0.00 0.00 0.00 28 1003.3
20260831021003 99 284 7.0 20.0 0.00 0.00 0.00 27 1003.0
20260831020503 99 240 7.0 10.0 0.00 0.00 0.00 28 1003.0
20260831020002 99 277 7.0 16.0 0.00 0.00 0.00 28 1003.0
20260831015003 100 278 9.0 20.0 0.00 0.00 0.00 27 1003.0
20260831014503 101 288 8.0 23.0 0.00 0.00 0.00 26 1003.0
20260831013503 101 285 8.0 17.0 0.00 0.00 0.00 26 1002.9
20260831013003 102 286 10.0 16.0 0.00 0.00 0.00 25 1002.9
20260831012502 102 293 11.0 20.0 0.00 0.00 0.00 24 1002.8
20260831011502 103 286 7.0 16.0 0.00 0.00 0.00 22 1002.8
20260831011003 104 297 9.0 17.0 0.00 0.00 0.00 21 1002.7
20260831010502 104 291 7.0 18.0 0.00 0.00 0.00 20 1002.8
20260831005002 105 303 5.0 13.0 0.00 0.00 0.00 20 1003.0
20260831004503 105 260 6.0 12.0 0.00 0.00 0.00 19 1002.9
20260831004002 105 289 8.0 14.0 0.00 0.00 0.00 19 1002.9
20260831003502 105 286 7.0 16.0 0.00 0.00 0.00 19 1002.8
20260831003003 106 286 8.0 14.0 0.00 0.00 0.00 19 1002.8
20260831002002 107 301 4.0 10.0 0.00 0.00 0.00 18 1002.7
20260831001503 107 302 6.0 15.0 0.00 0.00 0.00 18 1002.7
20260831000502 107 296 6.0 15.0 0.00 0.00 0.00 18 1002.6
20260831000003 107 284 8.0 13.0 0.00 0.00 0.00 18 1002.5
20260830235502 107 270 6.0 12.0 0.00 0.00 0.00 18 1002.6
20260830235003 107 334 3.0 8.0 0.00 0.00 0.00 18 1002.5
20260830234503 107 315 3.0 12.0 0.00 0.00 0.00 18 1002.5
20260830234003 107 283 6.0 12.0 0.00 0.00 0.00 18 1002.5
20260830233503 107 296 5.0 12.0 0.00 0.00 0.00 19 1002.6
20260830233003 106 299 1.0 3.0 0.00 0.00 0.00 22 1002.7
20260830232503 106 169 3.0 6.0 0.00 0.00 0.00 20 1002.6
20260830232003 106 142 4.0 8.0 0.00 0.00 0.00 19 1002.7
20260830231502 106 134 4.0 7.0 0.00 0.00 0.00 20 1002.7
20260830231003 106 233 3.0 7.0 0.00 0.00 0.00 20 1002.7
20260830230503 106 206 2.0 6.0 0.00 0.00 0.00 21 1002.8
20260830230003 106 37 1.0 3.0 0.00 0.00 0.00 21 1002.9
20260830225503 106 71 1.0 9.0 0.00 0.00 0.00 20 1003.0
20260830225003 106 16 2.0 3.0 0.00 0.00 0.00 22 1003.0
20260830224503 106 327 4.0 6.0 0.00 0.00 0.00 22 1003.1
20260830224002 106 32 4.0 7.0 0.00 0.00 0.00 21 1003.1
20260830223502 107 73 5.0 10.0 0.00 0.00 0.00 21 1003.2
20260830222502 107 80 7.0 12.0 0.00 0.00 0.00 21 1003.5
20260830222003 107 111 6.0 12.0 0.00 0.00 0.00 21 1003.5
20260830221502 108 75 6.0 12.0 0.00 0.00 0.00 21 1003.6
20260830221002 107 60 2.0 12.0 0.00 0.00 0.00 22 1003.7
20260830220503 106 125 5.0 12.0 0.00 0.00 0.00 22 1003.8
20260830220002 106 147 4.0 6.0 0.00 0.00 0.00 22 1003.9
20260830215002 105 108 1.0 5.0 0.00 0.00 0.00 23 1004.1
20260830214503 105 186 2.0 3.0 0.00 0.00 0.00 24 1004.1
20260830213503 105 147 6.0 8.0 0.00 0.00 0.00 24 1004.5
20260830213003 105 72 3.0 8.0 0.00 0.00 0.00 24 1004.6
20260830212503 105 149 2.0 5.0 0.00 0.00 0.00 21 1004.7
20260830212003 105 108 2.0 7.0 0.00 0.00 0.00 22 1004.7
20260830211503 105 206 3.0 9.0 0.00 0.00 0.00 22 1004.9
20260830210503 104 132 3.0 6.0 0.00 0.00 0.00 24 1005.1
20260830210002 104 138 3.0 12.0 0.00 0.00 0.00 23 1005.1
20260830205503 105 121 7.0 13.0 0.00 0.00 0.00 23 1005.2
20260830205002 104 100 5.0 8.0 0.00 0.00 0.00 23 1005.3
20260830204003 105 111 6.0 9.0 0.00 0.00 0.00 22 1005.5
20260830203502 104 107 3.0 8.0 0.00 0.00 0.00 23 1005.6
20260830202502 104 135 3.0 10.0 0.00 0.00 0.00 25 1005.6
20260830202002 103 228 2.0 7.0 0.00 0.00 0.00 25 1005.7
20260830201503 103 167 3.0 9.0 0.00 0.00 0.00 25 1005.8
20260830201002 103 138 4.0 9.0 0.00 0.00 0.00 25 1005.8
20260830200502 103 75 4.0 12.0 0.00 0.00 0.00 25 1005.9
20260830200002 103 88 6.0 13.0 0.00 0.00 0.00 25 1006.0
20260830195502 103 181 3.0 9.0 0.00 0.00 0.00 26 1006.1
20260830195002 102 107 6.0 12.0 0.00 0.00 0.00 25 1006.2
20260830194502 103 189 5.0 8.0 0.00 0.00 0.00 26 1006.2
20260830194003 102 151 3.0 5.0 0.00 0.00 0.00 25 1006.3
20260830193503 102 216 5.0 8.0 0.00 0.00 0.00 24 1006.6
20260830193003 103 137 6.0 13.0 0.00 0.00 0.00 24 1006.6
20260830192504 103 153 6.0 12.0 0.00 0.00 0.00 25 1006.7
20260830192002 102 112 3.0 9.0 0.00 0.00 0.00 23 1006.7
20260830191503 102 128 5.0 14.0 0.00 0.00 0.00 24 1006.7
20260830191003 102 131 6.0 12.0 0.00 0.00 0.00 23 1006.7
20260830190503 102 73 5.0 10.0 0.00 0.00 0.00 24 1006.8
20260830190002 101 162 5.0 9.0 0.00 0.00 0.00 24 1006.9
20260830185503 101 143 7.0 12.0 0.00 0.00 0.00 23 1007.0
20260830185002 102 102 7.0 8.0 0.00 0.00 0.00 23 1007.1
20260830184503 102 103 6.0 12.0 0.00 0.00 0.00 23 1007.2
20260830184003 102 89 9.0 13.0 0.00 0.00 0.00 22 1007.2
20260830183503 101 108 5.0 10.0 0.00 0.00 0.00 22 1007.2
20260830183002 101 98 5.0 9.0 0.00 0.00 0.00 23 1007.2
20260830182503 102 122 6.0 9.0 0.00 0.00 0.00 23 1007.2
20260830182003 102 95 7.0 12.0 0.00 0.00 0.00 23 1007.3
20260830181503 101 82 5.0 10.0 0.00 0.00 0.00 23 1007.3
20260830180503 101 134 4.0 10.0 0.00 0.00 0.00 23 1007.3
20260830180002 100 128 2.0 7.0 0.00 0.00 0.00 25 1007.2
20260830175503 100 109 3.0 8.0 0.00 0.00 0.00 24 1007.3
20260830175002 100 110 5.0 8.0 0.00 0.00 0.00 26 1007.2
20260830174003 99 147 5.0 8.0 0.00 0.00 0.00 27 1007.2
20260830173503 99 178 4.0 7.0 0.00 0.00 0.00 26 1007.2
20260830173002 100 179 4.0 7.0 0.00 0.00 0.00 26 1007.2
20260830172502 100 92 2.0 6.0 0.00 0.00 0.00 24 1007.2
20260830172002 99 206 3.0 3.0 0.00 0.00 0.00 25 1007.2
20260830171503 98 189 2.0 3.0 0.00 0.00 0.00 24 1007.2
20260830171002 98 161 2.0 3.0 0.00 0.00 0.00 25 1007.2
20260830170502 98 150 2.0 5.0 0.00 0.00 0.00 25 1007.1
20260830170002 99 241 4.0 8.0 0.00 0.00 0.00 25 1007.1
20260830165503 98 230 2.0 8.0 0.00 0.00 0.00 26 1007.0
20260830165003 98 274 1.0 7.0 0.00 0.00 0.00 26 1006.9
20260830164502 98 287 2.0 8.0 0.00 0.00 0.00 26 1006.8
20260830164002 97 276 3.0 8.0 0.00 0.00 0.00 27 1006.8
20260830163502 97 271 5.0 10.0 0.00 0.00 0.00 26 1006.9
20260830163003 97 248 5.0 7.0 0.00 0.00 0.00 27 1006.8
20260830162502 96 277 4.0 9.0 0.00 0.00 0.00 27 1006.8
20260830162002 96 297 4.0 8.0 0.00 0.00 0.00 29 1006.7
20260830161503 95 274 5.0 9.0 0.00 0.00 0.00 28 1006.8
20260830161002 95 288 5.0 10.0 0.00 0.00 0.00 29 1006.8
20260830160503 95 298 3.0 9.0 0.00 0.00 0.00 28 1006.8
20260830160002 95 302 5.0 9.0 0.00 0.00 0.00 27 1006.8
20260830155503 95 312 3.0 9.0 0.00 0.00 0.00 28 1006.8
20260830154503 94 305 5.0 8.0 0.00 0.00 0.00 29 1006.8
20260830154002 94 313 6.0 12.0 0.00 0.00 0.00 29 1006.8
20260830153502 93 291 4.0 10.0 0.00 0.00 0.00 29 1006.9
20260830153003 93 297 6.0 9.0 0.00 0.00 0.00 29 1006.9
20260830152502 93 293 3.0 10.0 0.00 0.00 0.00 30 1007.0
20260830152002 92 297 6.0 12.0 0.00 0.00 0.00 31 1007.0
20260830151502 92 287 6.0 10.0 0.00 0.00 0.00 30 1007.0
20260830151003 92 297 3.0 12.0 0.00 0.00 0.00 31 1007.0
20260830150502 92 291 2.0 7.0 0.00 0.00 0.00 31 1007.0
20260830150002 91 274 4.0 9.0 0.00 0.00 0.00 32 1007.0
20260830145503 91 293 5.0 9.0 0.00 0.00 0.00 32 1006.9
20260830145003 91 285 5.0 8.0 0.00 0.00 0.00 32 1006.8
20260830144502 90 292 3.0 8.0 0.00 0.00 0.00 32 1006.8
20260830143503 90 301 2.0 9.0 0.00 0.00 0.00 32 1006.7
20260830143003 90 320 3.0 9.0 0.00 0.00 0.00 32 1006.7
20260830142502 89 278 3.0 7.0 0.00 0.00 0.00 33 1006.7
20260830142003 89 296 3.0 9.0 0.00 0.00 0.00 33 1006.7
20260830141503 89 267 2.0 6.0 0.00 0.00 0.00 33 1006.6
20260830141003 89 289 4.0 8.0 0.00 0.00 0.00 33 1006.6
20260830140003 88 296 3.0 7.0 0.00 0.00 0.00 34 1006.5
20260830135503 88 308 3.0 8.0 0.00 0.00 0.00 34 1006.5
20260830135003 88 343 2.0 5.0 0.00 0.00 0.00 34 1006.4
20260830134503 88 310 2.0 5.0 0.00 0.00 0.00 34 1006.2
20260830134003 88 4 2.0 6.0 0.00 0.00 0.00 34 1006.2
20260830133502 88 137 1.0 3.0 0.00 0.00 0.00 34 1006.2
20260830133003 88 301 1.0 3.0 0.00 0.00 0.00 34 1006.2
20260830132503 88 301 1.0 3.0 0.00 0.00 0.00 34 1006.1
20260830132003 88 304 1.0 3.0 0.00 0.00 0.00 34 1006.0
20260830131502 88 208 0.0 2.0 0.00 0.00 0.00 34 1006.0
20260830131002 88 208 1.0 3.0 0.00 0.00 0.00 34 1006.0
20260830130502 88 149 1.0 3.0 0.00 0.00 0.00 34 1005.9
20260830130003 89 66 0.0 2.0 0.00 0.00 0.00 33 1005.9
20260830125503 89 329 1.0 3.0 0.00 0.00 0.00 33 1005.9
20260830125003 89 223 0.0 2.0 0.00 0.00 0.00 33 1005.9
20260830123502 89 127 2.0 5.0 0.00 0.00 0.00 33 1005.6
20260830123003 89 78 2.0 3.0 0.00 0.00 0.00 33 1005.6